Simultaneous Nadir Overpasses (SNOs) Predictions

Prediction of SNOs near US between AQUA and NPP Satellite Orbit:

Table of predicted SNOs near US for the next 10.0 days since TLE Epoch: 12/3/2022
Index Date (AQUA) Time (AQUA) AQUA Lat,Lon Date (NPP) Time (NPP) NPP Lat,Lon Distance(km) Time Diff (sec)
1 12/04/2022 07:03:03 47.65, -71.00 12/04/2022 07:02:24 48.19, -74.23 248.11 39
2 12/06/2022 17:59:39 49.97, -74.16 12/06/2022 17:52:04 49.49, -76.82 198.51 455
3 12/06/2022 19:38:31 50.00, -98.89 12/06/2022 19:33:33 49.44,-102.17 244.33 298
4 12/09/2022 09:05:48 21.56,-107.50 12/09/2022 08:57:53 21.96,-109.41 201.96 475
